Location: Be Tobo
(6.6442°N, 10.6239°W)
Time: 17:11:55
(UTC+00:00)

Cosmos 1464 Rocket - Pass Details

Date: 18 September 2020
Orbit: 953 x 1000 km, 82.9° (Epoch: 25 October)

Event Time Altitude Azimuth Distance (km) Brightness Sun altitude
Rises 19:30:08 0° 173° (S) 3,634 6.9 -13.2°
Reaches altitude 10° 19:32:42 10° 169° (SSE) 2,683 6.2 -13.8°
Maximum altitude 19:38:39 54° 92° (E) 1,145 4.0 -15.3°
Drops below altitude 10° 19:44:34 10° 17° (NNE) 2,672 6.2 -16.8°
Sets 19:47:06 0° 12° (NNE) 3,618 6.9 -17.4°
